Location: Hains Lake
(37.8540°N, 99.8578°W)
Time: 11:56:57
(UTC+00:00)

STARLINK 1024 - Pass Details

Date: 11 December 2019
Orbit: 486 x 488 km, 53.0° (Epoch: 27 January)

Event Time Altitude Azimuth Distance (km) Brightness Sun altitude
Exits shadow 12:50:01 13° 265° (W) 1,401 5.1 -10.6°
Maximum altitude 12:51:39 17° 233° (SW) 1,216 5.1 -10.3°
Drops below altitude 10° 12:54:01 10° 191° (S) 1,578 6.1 -9.9°
Sets 12:56:40 0° 170° (S) 2,453 7.4 -9.4°
